CZ-3B R/B, 43649

Orbit data source: Space-Track

CZ-3B R/B, 43649 is space debris in HEO originally from a launch on Mon, 15 Oct 2018 UTC launched from the Xichang Space Center, China (XSC). Debris objects in space refer to the collection of defunct objects orbiting the Earth. Examples of debris include non-operational satellites, rocket bodies, and fragments generated from explosions, collisions, or faulty payload assembly.

Loading next visibility...
CZ-3B R/B details
Identifier
43649, 2018-078C
Orbit
HEO
Last TLE update1 day ago
Origin
Flag of CNCASC (CN / PRC)
ManufacturerCALT
MissionSpacecraft
Bus & MotorCZ-3A STAGE 3, Unknown motor
Mass~2,800 kg wet, ~2,800 kg dry
Launch date (UTC)
2018-10-15 (6 years ago)
Launch vehicleUnknown
Launch site
Xichang Space Center, China (XSC)
Object type
Payload
Rocket body
Debris
Shape & HBRCyl + 1 Nozzle, 12.38 m
Radar Cross Section32.704 m², Large (>1 m²)

Expand to show TLE details & history

TLE from 1 day ago
0 CZ-3B R/B
1 43649U 18078C   24347.20250977  .00000526  00000-0  79180-3 0  9993
2 43649  54.9356 186.3522 5479262 182.1435 173.9891  4.64069100103570
Epoch: 2024-12-12T04:51Z
Definitive object data (Epoch: 2024-12-12T04:51:36.844Z)
Latitude0.00001°
Longitude32.06378°
Altitude17,103.684 km
Speed2.775 km/s
True Right ascension12h 25m 24s
True Declination0° 00' 00"
Sunlit
Object was in daylight at TLE epoch
Visualization TLE readout
Latitude-45.01875°
Longitude-13.14534°
Altitude7,906.712 km
Speed5.44 km/s
Apparent Right ascension10h 06m 15s
Apparent Declination-69° 08' 16"
Sunlit
Object is in daylight
Visualization observer readout
Local Sidereal Time08:38:37
Azimuth171.858° S
Elevation-20.254°
Doppler factor1
Orbital elements
Apogee altitude17,123.416 km
Perigee altitude485.521 km
Semi-major axis15,182.605 km
Eccentricity0.5479262
Inclination54.9356°
RAAN186.3522°
Arg. of periapsis182.1435°
True anomaly177.90031°
Mean anomaly173.9891°
Eccentric anomaly176.11575°
Mean motion1.16018 °/min
BSTAR0.0007918
Orbital period310.3 mins
Loading maneuver chart data...
Loading historical data...
Loading historical data...
Loading historical data...
Loading historical data...
Loading historical data...
Loading historical data...
Loading historical data...
Other satellites on launch #78 in the year 2018 (2018-10-15 UTC)

CZ-3B R/B Visibility forecast

Observer location: undefined°, undefined

Span
Click to sort rows by Start time (UTC) header in descending order
Start Az.
Max El. time (UTC)
Max El. Az.
Max El.
End time (UTC)
End Az.
174 mins2024-12-13 11:05:44.892Z147.643° SSE2024-12-13 13:13:44.892Z100.388° ESE36.834°2024-12-13 13:59:44.892Z49.024° ENE
163 mins2024-12-13 16:43:44.892Z235.02° WSW2024-12-13 19:09:44.892Z339.114° N40.957°2024-12-13 19:26:44.892Z59.935° ENE
17 mins2024-12-14 00:30:44.892Z310.203° NW2024-12-14 00:43:44.892Z245.806° WSW31.708°2024-12-14 00:47:44.892Z184.481° SSW
|